Location: Newark
(33.9035°S, 18.4112°E)
Time: 00:22:56
(UTC+00:00)

STARLINK-1083 - Pass Details

Date: 21 January 2020
Orbit: 348 x 351 km, 53.0° (Epoch: 17 February)

Event Time Altitude Azimuth Distance (km) Brightness Sun altitude
Exits shadow 02:57:26 19° 287° (WNW) 926 4.2 -11.5°
Maximum altitude 02:59:13 42° 222° (SW) 520 3.4 -11.2°
Drops below altitude 10° 03:02:06 10° 148° (SSE) 1,341 6.7 -10.7°
Sets 03:04:11 0° 141° (SE) 2,191 8.3 -10.3°
